period_start,C,m1,H,J0,J1,J2,J3,J4,J5,JA,JB,JC,JD,JJ,JK,JN,#
2015-04-22 00:02:52,0.12,1.80,0.00,23.69,27.07,29.90,4.73,26.51,1018.08,2033.01,2760.21,2818.18,3053.77,350.52,347.86,13.65,0000 0000 0000 0000 000000
2015-04-22 00:07:53,0.10,1.80,0.00,23.64,27.07,29.92,4.77,26.52,1018.08,2033.00,2758.98,2817.46,3052.95,349.82,346.95,13.68,0000 0000 0000 0000 000000
2015-04-22 00:12:55,0.11,1.80,0.00,23.43,27.07,29.97,4.75,26.62,1018.08,2033.00,2757.76,2816.68,3052.06,350.13,347.63,13.71,0000 0000 0000 0000 000000
2015-04-22 00:17:56,0.10,1.81,0.00,23.36,27.09,29.99,4.78,26.59,1018.08,2033.00,2756.63,2815.91,3051.12,349.47,347.42,13.74,0000 0000 0000 0000 000000
2015-04-22 00:22:57,0.11,1.81,0.00,23.30,27.09,30.00,4.80,26.58,1018.07,2033.00,2755.42,2815.08,3050.23,350.01,347.90,13.77,0000 0000 0000 0000 000000
2015-04-22 00:27:59,0.11,1.81,0.00,23.23,27.08,30.00,4.78,26.62,1018.07,2033.00,2754.41,2814.44,3049.52,350.11,348.02,13.80,0000 0000 0000 0000 000000
2015-04-22 00:33:00,0.08,1.81,0.00,23.42,27.08,29.94,4.77,26.63,1018.07,2033.00,2753.34,2813.77,3048.78,350.08,347.77,13.83,0000 0000 0000 0000 000000
2015-04-22 00:38:01,0.09,1.82,0.00,23.69,27.08,29.91,4.72,26.68,1018.03,2033.00,2752.27,2812.95,3047.97,349.84,347.29,13.86,0000 0000 0000 0000 000000
2015-04-22 00:43:02,0.11,1.82,0.00,23.80,27.09,29.91,4.75,26.48,1017.99,2033.00,2751.19,2812.13,3047.08,350.16,347.28,13.89,0000 0000 0000 0000 000000
2015-04-22 00:48:03,0.12,1.82,0.00,23.76,27.10,29.93,4.80,26.58,1018.04,2033.00,2750.01,2811.32,3046.20,349.89,347.02,13.92,0000 0000 0000 0000 000000
2015-04-22 00:53:05,0.14,1.83,0.00,23.57,27.10,29.93,4.73,26.72,1018.08,2033.00,2748.57,2810.32,3045.14,349.33,347.15,13.95,0000 0000 0000 0000 000000
2015-04-22 00:58:06,0.14,1.83,0.00,23.47,27.10,29.97,4.80,26.57,1018.06,2033.00,2747.09,2809.32,3044.03,349.95,347.66,13.98,0000 0000 0000 0000 000000
2015-04-22 01:03:07,0.14,1.84,0.00,23.42,27.10,29.96,4.80,26.46,1018.05,2033.00,2745.62,2808.28,3042.90,350.66,348.05,14.01,0000 0000 0000 0000 000000
2015-04-22 01:08:09,0.14,1.84,0.00,23.35,27.10,29.93,4.77,26.58,1018.03,2033.00,2744.08,2807.25,3041.82,349.52,347.18,14.03,0000 0000 0000 0000 000000
2015-04-22 01:13:10,0.15,1.85,0.00,23.32,27.10,29.96,4.73,26.52,1017.99,2033.00,2742.60,2806.10,3040.63,349.61,347.49,14.06,0000 0000 0000 0000 000000
2015-04-22 01:18:11,0.15,1.85,0.00,23.27,27.10,29.95,4.79,26.55,1017.97,2033.00,2740.94,2804.94,3039.52,349.75,347.63,14.09,0000 0000 0000 0000 000000
2015-04-22 01:23:13,0.14,1.86,0.00,23.40,27.10,29.92,4.75,26.68,1017.94,2033.00,2739.38,2803.88,3038.20,349.28,346.83,14.12,0000 0000 0000 0000 000000
2015-04-22 01:28:14,0.15,1.86,0.00,23.75,27.10,29.90,4.78,26.63,1017.91,2033.00,2737.84,2802.84,3037.01,350.70,347.78,14.15,0000 0000 0000 0000 000000
2015-04-22 01:33:15,0.17,1.86,0.00,23.82,27.10,29.93,4.74,26.62,1017.70,2033.00,2736.23,2801.66,3035.75,349.89,346.90,14.18,0000 0000 0000 0000 000000
2015-04-22 01:38:17,0.17,1.87,0.00,23.77,27.10,29.92,4.73,26.82,1017.65,2033.00,2734.57,2800.43,3034.42,349.87,346.98,14.21,0000 0000 0000 0000 000000
2015-04-22 01:43:18,0.15,1.87,0.00,23.65,27.12,29.91,4.68,26.65,1017.72,2033.00,2732.86,2799.32,3033.13,349.57,346.70,14.24,0000 0000 0000 0000 000000
2015-04-22 01:48:20,0.17,1.88,0.00,23.59,27.12,29.95,4.79,26.63,1017.83,2033.00,2731.14,2798.02,3031.83,349.58,347.24,14.27,0000 0000 0000 0000 000000
2015-04-22 01:53:21,0.17,1.88,0.00,23.54,27.12,29.96,4.75,26.63,1017.94,2033.00,2729.49,2796.77,3030.51,349.67,347.23,14.30,0000 0000 0000 0000 000000
2015-04-22 01:58:23,0.18,1.89,0.00,23.50,27.12,29.99,4.82,26.57,1017.92,2033.00,2727.70,2795.52,3029.04,350.35,347.94,14.33,0000 0000 0000 0000 000000
2015-04-22 02:03:24,0.21,1.90,0.00,23.45,27.12,29.97,4.73,26.59,1017.90,2033.00,2725.65,2793.97,3027.46,350.10,347.59,14.36,0000 0000 0000 0000 000000
2015-04-22 02:08:25,0.17,1.90,0.00,23.42,27.12,29.97,4.79,26.54,1018.00,2033.00,2723.87,2792.65,3026.00,350.22,347.75,14.39,0000 0000 0000 0000 000000
2015-04-22 02:13:27,0.17,1.91,0.00,23.42,27.12,29.94,4.80,26.57,1018.01,2033.00,2722.13,2791.43,3024.63,350.25,347.88,14.42,0000 0000 0000 0000 000000
2015-04-22 02:18:28,0.15,1.91,0.00,23.41,27.12,29.92,4.83,26.66,1017.98,2033.00,2720.45,2790.17,3023.33,350.49,348.15,14.45,0000 0000 0000 0000 000000
2015-04-22 02:23:29,0.19,1.92,0.00,23.40,27.11,29.88,4.76,26.63,1017.99,2033.00,2718.69,2788.88,3021.90,349.06,346.73,14.47,0000 0000 0000 0000 000000
2015-04-22 02:28:31,0.19,1.92,0.00,23.42,27.10,29.90,4.79,26.70,1017.98,2033.00,2716.73,2787.55,3020.44,349.83,347.49,14.50,0000 0000 0000 0000 000000
2015-04-22 02:33:32,0.27,1.93,0.00,23.43,27.10,29.93,4.81,26.58,1018.00,2033.00,2714.19,2785.77,3018.56,350.22,348.02,14.53,0000 0000 0000 0000 000000
2015-04-22 02:38:33,0.20,1.94,0.00,23.42,27.10,29.92,4.77,26.77,1017.90,2032.99,2711.93,2784.19,3016.73,350.35,347.88,14.56,0000 0000 0000 0000 000000
2015-04-22 02:43:35,0.22,1.94,0.00,23.44,27.10,29.92,4.80,26.63,1017.76,2032.99,2709.77,2782.67,3015.14,350.18,347.73,14.59,0000 0000 0000 0000 000000
2015-04-22 02:48:36,0.26,1.95,0.00,23.47,27.10,29.90,4.81,26.58,1017.94,2032.99,2707.12,2780.84,3013.26,350.37,347.78,14.62,0000 0000 0000 0000 000000
2015-04-22 02:53:38,0.29,1.96,0.00,23.48,27.09,29.87,4.75,26.67,1018.04,2032.99,2704.11,2778.97,3011.19,350.04,347.69,14.65,0000 0000 0000 0000 000000
2015-04-22 02:58:39,0.32,1.97,0.00,23.49,27.07,29.89,4.85,26.68,1018.07,2032.99,2700.67,2776.78,3008.83,350.59,348.07,14.68,0000 0000 0000 0000 000000
2015-04-22 03:03:40,0.27,1.97,0.00,23.52,27.07,29.88,4.75,26.60,1018.08,2033.00,2697.62,2774.87,3006.87,349.73,347.20,14.71,0000 0000 0000 0000 000000
2015-04-22 03:08:42,0.29,1.98,0.00,23.53,27.07,29.87,4.80,26.58,1018.08,2033.00,2694.53,2772.82,3004.78,350.03,347.68,14.74,0000 0000 0000 0000 000000
2015-04-22 03:13:43,0.20,1.99,0.00,23.54,27.07,29.87,4.77,26.57,1018.08,2033.00,2692.11,2771.29,3003.06,349.48,346.92,14.77,0000 0000 0000 0000 000000
2015-04-22 03:18:44,0.18,2.00,0.00,23.58,27.07,29.87,4.80,26.56,1018.08,2033.00,2690.11,2769.94,3001.62,349.86,347.69,14.80,0000 0000 0000 0000 000000
2015-04-22 03:23:46,0.20,2.00,0.00,23.60,27.07,29.86,4.73,26.73,1018.08,2033.00,2688.19,2768.65,3000.24,349.56,347.08,14.83,0000 0000 0000 0000 000000
2015-04-22 03:28:47,0.21,2.01,0.00,23.61,27.06,29.84,4.79,26.68,1018.04,2033.00,2686.09,2767.12,2998.55,349.88,347.07,14.86,0000 0000 0000 0000 000000
2015-04-22 03:33:48,0.19,2.01,0.00,23.64,27.05,29.82,4.81,26.58,1017.99,2033.01,2684.11,2765.73,2997.01,349.94,347.27,14.88,0000 0000 0000 0000 000000
2015-04-22 03:38:50,0.22,2.02,0.00,23.67,27.05,29.83,4.75,26.68,1017.94,2033.00,2681.79,2764.30,2995.47,350.12,347.65,14.91,0000 0000 0000 0000 000000
2015-04-22 03:43:51,0.24,2.03,0.00,23.68,27.05,29.82,4.75,26.57,1018.04,2033.00,2679.40,2762.67,2993.73,349.75,347.21,14.94,0000 0000 0000 0000 000000
2015-04-22 03:48:53,0.21,2.03,0.00,23.70,27.05,29.82,4.77,26.52,1018.08,2033.00,2677.08,2761.06,2992.05,350.70,348.04,14.97,0000 0000 0000 0000 000000
2015-04-22 03:53:54,0.18,2.04,0.00,23.71,27.05,29.78,4.79,26.47,1018.08,2033.00,2675.10,2759.81,2990.63,350.09,347.60,15.00,0000 0000 0000 0000 000000
2015-04-22 03:58:55,0.15,2.04,0.00,23.74,27.05,29.81,4.73,26.54,1018.07,2033.00,2673.48,2758.78,2989.49,350.26,347.57,15.03,0000 0000 0000 0000 000000
2015-04-22 04:03:56,0.11,2.05,0.00,23.75,27.06,29.81,4.79,26.53,1018.07,2033.00,2672.19,2757.88,2988.46,349.96,347.27,15.06,0000 0000 0000 0000 000000
2015-04-22 04:08:57,0.16,2.05,0.00,23.75,27.06,29.83,4.73,26.55,1018.08,2033.00,2670.71,2756.85,2987.42,350.07,347.44,15.09,0000 0000 0000 0000 000000
2015-04-22 04:13:59,0.14,2.06,0.00,23.78,27.07,29.83,4.76,26.62,1018.08,2033.00,2669.18,2755.80,2986.34,350.31,347.51,15.12,0000 0000 0000 0000 000000
2015-04-22 04:19:00,0.13,2.06,0.00,23.80,27.07,29.81,4.68,26.52,1018.08,2033.00,2667.77,2754.84,2985.20,349.45,346.62,15.15,0000 0000 0000 0000 000000
2015-04-22 04:24:01,0.13,2.07,0.00,23.80,27.07,29.82,4.80,26.61,1018.08,2033.00,2666.45,2753.93,2984.15,349.92,347.16,15.18,0000 0000 0000 0000 000000
2015-04-22 04:29:03,0.11,2.07,0.00,23.81,27.07,29.80,4.78,26.57,1018.08,2033.00,2665.41,2753.06,2983.34,349.91,347.11,15.21,0000 0000 0000 0000 000000
2015-04-22 04:34:04,0.13,2.07,0.00,23.84,27.07,29.82,4.83,26.55,1018.08,2033.00,2664.02,2752.14,2982.25,350.69,347.93,15.24,0000 0000 0000 0000 000000
2015-04-22 04:39:06,0.12,2.08,0.00,23.85,27.07,29.80,4.74,26.48,1018.08,2033.00,2662.87,2751.24,2981.29,349.91,347.11,15.27,0000 0000 0000 0000 000000
2015-04-22 04:44:07,0.06,2.08,0.00,23.86,27.07,29.79,4.79,26.49,1018.08,2033.00,2661.94,2750.90,2980.73,350.33,347.56,15.29,0000 0000 0000 0000 000000
2015-04-22 04:49:08,0.18,2.08,0.00,23.85,27.07,29.78,4.82,26.38,1018.08,2033.00,2660.62,2749.80,2979.48,350.45,347.70,15.32,0000 0000 0000 0000 000000
2015-04-22 04:54:09,0.12,2.09,0.00,23.89,27.09,29.81,4.71,26.44,1018.08,2033.00,2659.38,2748.84,2978.43,349.68,346.86,15.35,0000 0000 0000 0000 000000
2015-04-22 04:59:11,0.11,2.09,0.00,23.90,27.09,29.77,4.82,26.50,1018.08,2033.00,2658.00,2747.99,2977.49,350.04,347.22,15.38,0000 0000 0000 0000 000000
2015-04-22 05:04:12,0.16,2.10,0.00,23.90,27.10,29.76,4.76,26.47,1018.08,2033.00,2656.53,2747.01,2976.45,350.32,347.49,15.41,0000 0000 0000 0000 000000
2015-04-22 05:09:13,0.26,2.10,0.00,23.90,27.10,29.81,4.87,26.39,1018.08,2033.00,2654.16,2745.27,2974.59,350.69,347.72,15.44,0000 0000 0000 0000 000000
2015-04-22 05:14:14,0.35,2.11,0.00,23.91,27.10,29.83,4.83,26.43,1018.08,2033.00,2650.97,2742.93,2971.95,350.30,347.29,15.47,0000 0000 0000 0000 000000
2015-04-22 05:19:15,0.46,2.12,0.00,23.94,27.10,29.86,4.74,26.43,1018.08,2033.00,2646.88,2739.93,2968.83,349.65,346.77,15.50,0000 0000 0000 0000 000000
2015-04-22 05:24:17,0.35,2.14,0.00,23.94,27.12,29.85,4.70,26.38,1018.08,2033.00,2643.08,2737.25,2965.86,349.48,346.65,15.53,0000 0000 0000 0000 000000
2015-04-22 05:29:17,0.14,2.14,0.00,23.93,27.12,29.84,4.73,26.36,1018.08,2033.00,2641.24,2735.97,2964.56,349.78,347.08,15.56,0000 0000 0000 0000 000000
2015-04-22 05:34:19,0.12,2.15,0.00,23.94,27.12,29.87,4.75,26.57,1018.08,2033.00,2640.01,2735.07,2963.69,349.64,346.65,15.59,0000 0000 0000 0000 000000
2015-04-22 05:39:20,0.14,2.15,0.00,23.96,27.12,29.89,4.77,26.42,1018.08,2032.99,2638.81,2734.18,2962.60,350.47,347.47,15.62,0000 0000 0000 0000 000000
2015-04-22 05:44:21,0.30,2.16,0.00,23.95,27.14,29.89,4.75,26.47,1018.09,2032.99,2636.16,2732.61,2960.92,350.05,347.12,15.65,0000 0000 0000 0000 000000
2015-04-22 05:49:23,0.22,2.16,0.00,23.96,27.15,29.89,4.78,26.55,1018.08,2032.99,2633.14,2730.92,2959.11,350.07,346.95,15.68,0000 0000 0000 0000 000000
2015-04-22 05:54:24,0.23,2.17,0.00,23.97,27.15,29.89,4.72,26.54,1018.09,2032.99,2630.74,2729.56,2957.63,350.08,347.01,15.71,0000 0000 0000 0000 000000
2015-04-22 05:59:25,0.17,2.18,0.00,23.99,27.15,29.90,4.76,26.58,1018.10,2032.98,2628.60,2728.40,2956.33,349.98,347.05,15.73,0000 0000 0000 0000 000000
2015-04-22 06:04:27,0.12,2.18,0.00,24.00,27.15,29.89,4.86,26.56,1018.10,2032.98,2627.31,2727.57,2955.44,350.74,347.58,15.76,0000 0000 0000 0000 000000
2015-04-22 06:09:28,0.09,2.18,0.00,23.99,27.15,29.89,4.70,26.61,1018.12,2032.97,2626.16,2726.84,2954.62,349.54,346.55,15.79,0000 0000 0000 0000 000000
2015-04-22 06:14:30,0.12,2.19,0.00,23.97,27.16,29.91,4.79,26.59,1018.10,2032.98,2624.98,2725.97,2953.69,350.13,347.37,15.82,0000 0000 0000 0000 000000
2015-04-22 06:19:31,0.10,2.19,0.00,23.97,27.17,29.95,4.66,26.59,1018.09,2032.98,2623.92,2725.12,2952.96,349.51,346.54,15.85,0000 0000 0000 0000 000000
2015-04-22 06:24:33,0.14,2.19,0.00,24.00,27.17,29.89,4.77,26.43,1018.09,2032.98,2622.81,2724.41,2951.92,350.18,347.23,15.88,0000 0000 0000 0000 000000
2015-04-22 06:29:34,0.15,2.20,0.00,24.00,27.17,29.92,4.81,26.61,1018.10,2032.95,2621.56,2723.38,2950.76,350.13,347.19,15.91,0000 0000 0000 0000 000000
2015-04-22 06:34:36,0.16,2.20,0.00,23.99,27.17,29.94,4.80,26.57,1018.13,2032.95,2620.08,2722.11,2949.52,350.02,346.99,15.94,0000 0000 0000 0000 000000
2015-04-22 06:39:37,0.37,2.21,0.00,23.99,27.17,29.92,4.73,26.52,1018.17,2032.89,2616.72,2719.79,2946.95,349.29,346.42,15.97,0000 0000 0000 0000 000000
2015-04-22 06:44:39,0.22,2.22,0.00,24.01,27.17,29.94,4.71,26.59,1018.12,2032.92,2614.35,2718.29,2945.27,350.00,346.74,16.00,0000 0000 0000 0000 000000
2015-04-22 06:49:40,0.32,2.23,0.00,24.03,27.18,29.93,4.75,26.44,1018.12,2032.89,2611.56,2716.13,2943.07,350.17,347.10,16.03,0000 0000 0000 0000 000000
2015-04-22 06:54:41,0.35,2.24,0.00,24.03,27.19,29.94,4.83,26.51,1018.15,2032.85,2608.00,2713.63,2940.44,350.36,347.24,16.06,0000 0000 0000 0000 000000
2015-04-22 06:59:43,0.39,2.25,0.00,24.02,27.20,29.91,4.77,26.51,1018.12,2032.77,2604.10,2710.87,2937.51,350.11,347.16,16.09,0000 0000 0000 0000 000000
2015-04-22 07:04:44,0.21,2.26,0.00,24.01,27.20,29.99,4.68,26.53,1018.12,2032.70,2601.58,2708.85,2935.46,350.02,346.96,16.11,0000 0000 0000 0000 000000
2015-04-22 07:09:45,0.18,2.26,0.00,24.03,27.20,29.97,4.79,26.38,1018.11,2032.59,2599.91,2707.51,2933.84,349.36,346.44,16.14,0000 0000 0000 0000 000000
2015-04-22 07:14:46,0.19,2.27,0.00,24.05,27.20,29.97,4.76,26.58,1018.11,2032.67,2598.48,2706.27,2932.47,349.84,346.70,16.17,0000 0000 0000 0000 000000
2015-04-22 07:19:48,0.09,2.27,0.00,24.05,27.20,29.99,4.79,26.58,1018.12,2032.44,2596.95,2705.06,2931.21,349.77,346.82,16.20,0000 0000 0000 0000 000000
2015-04-22 07:24:49,0.24,2.28,0.00,24.04,27.20,30.00,4.80,26.62,1018.14,2032.28,2594.73,2703.40,2929.40,350.02,347.00,16.23,0000 0000 0000 0000 000000
2015-04-22 07:29:50,0.30,2.29,0.00,24.03,27.20,30.00,4.76,26.57,1018.15,2032.21,2592.25,2701.35,2927.21,349.99,347.05,16.26,0000 0000 0000 0000 000000
2015-04-22 07:34:51,0.43,2.30,0.00,24.06,27.21,29.98,4.72,26.55,1018.30,2032.18,2588.46,2698.45,2924.04,349.67,346.70,16.29,0000 0000 0000 0000 000000
2015-04-22 07:39:52,0.33,2.31,0.00,24.07,27.21,29.97,4.74,26.60,1018.49,2032.11,2585.15,2695.98,2921.40,350.01,347.11,16.32,0000 0000 0000 0000 000000
2015-04-22 07:44:54,0.32,2.32,0.00,24.07,27.22,29.99,4.67,26.52,1018.53,2032.13,2582.35,2693.79,2919.09,349.17,346.39,16.35,0000 0000 0000 0000 000000
2015-04-22 07:49:55,0.31,2.33,0.00,24.07,27.22,30.02,4.77,26.53,1018.52,2032.13,2579.54,2691.61,2916.72,349.94,346.99,16.38,0000 0000 0000 0000 000000
2015-04-22 07:54:56,0.29,2.34,0.00,24.08,27.22,30.01,4.79,26.53,1018.56,2032.10,2576.81,2689.41,2914.35,349.81,346.74,16.41,0000 0000 0000 0000 000000
2015-04-22 07:59:57,0.25,2.34,0.00,24.11,27.22,29.99,4.67,26.52,1018.57,2032.08,2574.62,2687.59,2912.38,349.97,347.02,16.44,0000 0000 0000 0000 000000
2015-04-22 08:04:59,0.15,2.35,0.00,24.12,27.22,29.99,4.79,26.72,1018.57,2032.07,2573.11,2686.33,2910.88,349.84,346.74,16.47,0000 0000 0000 0000 000000
2015-04-22 08:10:00,0.09,2.35,0.00,24.13,27.22,29.98,4.81,26.72,1018.57,2032.02,2572.08,2685.52,2909.99,350.32,347.39,16.50,0000 0000 0000 0000 000000
2015-04-22 08:15:01,0.09,2.36,0.00,24.14,27.22,29.92,4.80,26.63,1018.57,2032.02,2571.13,2684.91,2909.16,350.29,347.14,16.53,0000 0000 0000 0000 000000
2015-04-22 08:20:02,0.12,2.36,0.00,24.14,27.22,29.92,4.74,26.59,1018.57,2032.02,2570.15,2684.07,2908.24,349.67,346.89,16.55,0000 0000 0000 0000 000000
2015-04-22 08:25:04,0.12,2.36,0.00,24.15,27.23,29.90,4.78,26.63,1018.58,2032.02,2569.23,2683.28,2907.50,349.89,346.82,16.58,0000 0000 0000 0000 000000
2015-04-22 08:30:05,0.06,2.37,0.00,24.13,27.24,29.93,4.71,26.48,1018.59,2032.02,2568.45,2682.86,2906.94,349.74,346.75,16.61,0000 0000 0000 0000 000000
2015-04-22 08:35:06,0.09,2.37,0.00,24.09,27.24,29.93,4.78,26.61,1018.58,2032.03,2567.78,2682.08,2906.14,349.65,346.73,16.64,0000 0000 0000 0000 000000
2015-04-22 08:40:08,0.03,2.37,0.00,24.06,27.25,29.97,4.79,26.57,1018.58,2032.02,2567.02,2681.95,2905.96,350.12,347.22,16.67,0000 0000 0000 0000 000000
2015-04-22 08:45:09,0.09,2.37,0.00,24.05,27.25,29.98,4.84,26.66,1018.60,2032.01,2566.58,2681.36,2905.32,350.34,347.25,16.70,0000 0000 0000 0000 000000
2015-04-22 08:50:10,0.02,2.37,0.00,24.05,27.25,30.02,4.77,26.46,1018.62,2032.00,2566.02,2681.01,2905.01,350.38,347.53,16.73,0000 0000 0000 0000 000000
2015-04-22 08:55:11,0.01,2.37,0.00,24.02,27.25,30.03,4.74,26.51,1018.76,2032.02,2565.87,2681.00,2904.95,350.20,347.45,16.76,0000 0000 0000 0000 000000
2015-04-22 09:00:13,0.10,2.38,0.00,23.98,27.25,30.07,4.81,26.54,1018.73,2032.02,2565.09,2680.44,2904.19,350.39,347.93,16.79,0000 0000 0000 0000 000000
2015-04-22 09:05:14,0.04,2.38,0.00,23.95,27.25,30.09,4.79,26.56,1018.78,2032.03,2564.53,2680.01,2903.99,349.98,347.18,16.82,0000 0000 0000 0000 000000
2015-04-22 09:10:15,0.03,2.38,0.00,23.94,27.25,30.09,4.72,26.57,1018.98,2032.01,2563.98,2679.92,2903.50,349.54,346.83,16.85,0000 0000 0000 0000 000000
2015-04-22 09:15:16,0.08,2.38,0.00,23.93,27.25,30.11,4.74,26.56,1019.01,2032.00,2563.26,2679.22,2903.01,349.49,346.91,16.88,0000 0000 0000 0000 000000
2015-04-22 09:20:17,0.01,2.38,0.00,23.90,27.24,30.12,4.81,26.55,1019.04,2032.00,2562.94,2679.00,2902.83,350.73,348.28,16.91,0000 0000 0000 0000 000000
2015-04-22 09:25:18,0.07,2.39,0.00,23.86,27.24,30.12,4.79,26.60,1019.05,2032.00,2562.17,2678.89,2902.11,350.16,347.74,16.94,0000 0000 0000 0000 000000
2015-04-22 09:30:20,0.05,2.39,0.00,23.85,27.23,30.12,4.79,26.67,1019.04,2032.01,2561.94,2678.24,2901.99,350.17,347.70,16.96,0000 0000 0000 0000 000000
2015-04-22 09:35:21,0.08,2.39,0.00,23.85,27.22,30.11,4.72,26.68,1019.03,2032.00,2561.05,2677.85,2901.23,349.76,347.30,16.99,0000 0000 0000 0000 000000
2015-04-22 09:40:23,0.14,2.39,0.00,23.82,27.22,30.10,4.78,26.77,1019.01,2032.01,2559.86,2676.94,2900.46,349.77,347.19,17.02,0000 0000 0000 0000 000000
2015-04-22 09:45:24,0.23,2.40,0.00,23.79,27.22,30.11,4.77,26.55,1019.03,2032.02,2558.09,2675.65,2899.03,350.33,348.03,17.05,0000 0000 0000 0000 000000
2015-04-22 09:50:25,0.24,2.41,0.00,23.77,27.22,30.10,4.82,26.73,1018.99,2032.03,2555.66,2673.94,2897.24,350.10,347.75,17.08,0000 0000 0000 0000 000000
2015-04-22 09:55:26,0.23,2.41,0.00,23.77,27.22,30.09,4.80,26.70,1019.05,2032.01,2553.38,2672.51,2895.62,350.07,347.68,17.11,0000 0000 0000 0000 000000
2015-04-22 10:00:28,0.42,2.42,0.00,23.74,27.20,30.10,4.77,26.66,1019.06,2032.02,2549.48,2670.41,2893.33,350.08,347.63,17.14,0000 0000 0000 0000 000000
2015-04-22 10:05:29,0.34,2.44,0.00,23.71,27.20,30.09,4.75,26.59,1019.06,2032.02,2544.91,2668.06,2890.73,349.48,346.75,17.17,0000 0000 0000 0000 000000
2015-04-22 10:10:30,0.11,2.44,0.00,23.67,27.20,30.08,4.82,26.66,1019.07,2032.02,2543.46,2667.07,2889.84,350.34,348.07,17.20,0000 0000 0000 0000 000000
2015-04-22 10:15:31,0.12,2.44,0.00,23.67,27.20,30.07,4.77,26.59,1019.07,2032.04,2542.31,2666.45,2889.05,349.59,347.26,17.23,0000 0000 0000 0000 000000
2015-04-22 10:20:33,0.06,2.45,0.00,23.63,27.19,30.07,4.76,26.59,1019.08,2032.05,2541.58,2666.01,2888.63,349.81,347.77,17.26,0000 0000 0000 0000 000000
2015-04-22 10:25:34,0.07,2.45,0.00,23.60,27.17,30.06,4.79,26.67,1019.08,2032.08,2540.96,2665.60,2888.02,350.14,347.79,17.29,0000 0000 0000 0000 000000
2015-04-22 10:30:35,0.07,2.45,0.00,23.59,27.17,30.04,4.75,26.63,1019.08,2032.11,2540.14,2665.02,2887.64,349.56,347.32,17.32,0000 0000 0000 0000 000000
2015-04-22 10:35:36,0.05,2.45,0.00,23.58,27.17,30.04,4.82,26.69,1019.08,2032.07,2539.62,2664.79,2887.02,349.80,347.62,17.35,0000 0000 0000 0000 000000
2015-04-22 10:40:38,0.07,2.45,0.00,23.56,27.15,30.05,4.82,26.71,1019.09,2032.09,2539.00,2664.04,2886.70,350.02,347.77,17.37,0000 0000 0000 0000 000000
2015-04-22 10:45:39,0.09,2.46,0.00,23.52,27.15,30.04,4.78,26.62,1019.12,2032.10,2538.08,2663.76,2885.97,349.73,347.64,17.40,0000 0000 0000 0000 000000
2015-04-22 10:50:41,0.26,2.46,0.00,23.51,27.15,30.03,4.83,26.58,1019.13,2032.09,2535.50,2662.47,2884.64,350.28,348.23,17.43,0000 0000 0000 0000 000000
2015-04-22 10:55:42,0.17,2.47,0.00,23.49,27.14,30.02,4.75,26.58,1019.14,2032.09,2533.26,2661.19,2883.33,349.36,347.32,17.46,0000 0000 0000 0000 000000
2015-04-22 11:00:43,0.09,2.47,0.00,23.46,27.12,30.00,4.78,26.62,1019.24,2032.27,2532.18,2660.81,2882.87,350.07,348.32,17.49,0000 0000 0000 0000 000000
2015-04-22 11:05:44,0.12,2.48,0.00,23.42,27.12,30.03,4.75,26.63,1019.46,2032.29,2531.12,2660.01,2882.02,349.68,347.87,17.52,0000 0000 0000 0000 000000
2015-04-22 11:10:46,0.21,2.48,0.00,23.43,27.11,29.99,4.77,26.64,1019.53,2032.42,2529.46,2659.00,2880.92,349.11,347.24,17.55,0000 0000 0000 0000 000000
2015-04-22 11:15:47,0.29,2.49,0.00,23.40,27.10,29.99,4.82,26.72,1019.54,2032.70,2527.30,2657.62,2879.48,349.91,348.17,17.58,0000 0000 0000 0000 000000
2015-04-22 11:20:48,0.35,2.50,0.00,23.38,27.10,29.97,4.79,26.68,1019.51,2032.85,2524.26,2655.47,2877.31,350.02,348.18,17.61,0000 0000 0000 0000 000000
2015-04-22 11:25:49,0.26,2.51,0.00,23.36,27.09,29.96,4.83,26.72,1019.51,2032.85,2521.78,2653.56,2875.42,350.13,348.25,17.64,0000 0000 0000 0000 000000
2015-04-22 11:30:51,0.24,2.51,0.00,23.33,27.07,29.95,4.75,26.51,1019.51,2032.95,2519.77,2652.12,2873.81,349.51,347.85,17.67,0000 0000 0000 0000 000000
2015-04-22 11:35:52,0.23,2.52,0.00,23.28,27.07,29.96,4.69,26.68,1019.51,2032.95,2517.66,2650.60,2872.18,349.25,347.60,17.70,0000 0000 0000 0000 000000
2015-04-22 11:40:53,0.24,2.53,0.00,23.27,27.06,29.94,4.74,26.66,1019.45,2032.95,2515.47,2649.00,2870.52,349.92,348.44,17.73,0000 0000 0000 0000 000000
2015-04-22 11:45:54,0.31,2.54,0.00,23.27,27.05,29.92,4.83,26.70,1019.41,2032.98,2512.87,2647.16,2868.48,350.01,348.64,17.75,0000 0000 0000 0000 000000
2015-04-22 11:50:56,0.40,2.55,0.00,23.24,27.05,29.94,4.91,26.68,1019.45,2032.98,2509.50,2644.67,2865.88,350.86,349.24,17.78,0000 0000 0000 0000 000000
2015-04-22 11:55:57,0.50,2.56,0.00,23.22,27.04,29.91,4.80,26.73,1019.50,2032.98,2505.38,2641.41,2862.46,350.11,348.44,17.81,0000 0000 0000 0000 000000
2015-04-22 12:00:58,0.42,2.57,0.00,23.21,27.02,29.91,4.84,26.69,1019.52,2032.97,2501.53,2638.35,2859.30,350.07,348.54,17.84,0000 0000 0000 0000 000000
2015-04-22 12:06:00,0.22,2.58,0.00,23.20,27.02,29.90,4.77,26.63,1019.54,2032.98,2499.15,2636.61,2857.45,350.32,348.76,17.87,0000 0000 0000 0000 000000
2015-04-22 12:11:01,0.19,2.59,0.00,23.44,27.01,29.84,4.79,26.67,1019.54,2032.98,2497.53,2635.32,2855.96,349.97,348.09,17.90,0000 0000 0000 0000 000000
2015-04-22 12:16:02,0.24,2.60,0.00,23.70,27.00,29.82,4.73,26.67,1019.53,2032.99,2495.65,2633.69,2854.36,349.85,347.79,17.93,0000 0000 0000 0000 000000
2015-04-22 12:21:03,0.18,2.60,0.00,23.68,27.01,29.84,4.82,26.72,1019.55,2032.99,2493.90,2632.33,2852.87,350.39,348.40,17.96,0000 0000 0000 0000 000000
2015-04-22 12:26:04,0.13,2.61,0.00,23.47,27.02,29.87,4.80,26.77,1019.54,2032.98,2492.61,2631.39,2851.86,349.88,348.09,17.99,0000 0000 0000 0000 000000
2015-04-22 12:31:05,0.16,2.61,0.00,23.40,27.02,29.92,4.79,26.67,1019.53,2032.96,2491.32,2630.41,2850.74,349.56,347.73,18.02,0000 0000 0000 0000 000000
2015-04-22 12:36:06,0.12,2.62,0.00,23.34,27.02,29.94,4.78,26.73,1019.51,2032.98,2490.03,2629.57,2849.80,349.65,347.92,18.05,0000 0000 0000 0000 000000
2015-04-22 12:41:08,0.09,2.62,0.00,23.27,27.02,29.93,4.84,26.75,1019.46,2032.98,2489.04,2628.87,2849.01,350.79,349.03,18.08,0000 0000 0000 0000 000000
2015-04-22 12:46:09,0.11,2.62,0.00,23.23,27.01,29.94,4.78,26.66,1019.45,2032.97,2488.25,2628.09,2848.24,349.43,347.82,18.11,0000 0000 0000 0000 000000
2015-04-22 12:51:11,0.03,2.62,0.00,23.18,27.00,29.92,4.69,26.60,1019.45,2032.99,2487.78,2627.96,2847.99,349.33,348.06,18.14,0000 0000 0000 0000 000000
2015-04-22 12:56:12,0.11,2.63,0.00,23.14,27.00,29.93,4.80,26.65,1019.37,2032.99,2486.98,2627.26,2847.34,349.82,348.19,18.16,0000 0000 0000 0000 000000
2015-04-22 13:01:13,0.05,2.63,0.00,23.13,27.00,29.89,4.82,26.68,1019.34,2032.99,2486.11,2626.94,2846.86,350.00,348.50,18.19,0000 0000 0000 0000 000000